Regional Weather Roundup
Issued by NWS

Home | Current Version | Previous Version | Graphics & Text | Print | Product List | Glossary On
Versions: 1 2 3 4 5 6 7 8 9 10 11 12 13 14 15 16 17 18 19 20 21 22 23 24 25 26 27 28 29 30 31 32 33 34 35 36 37 38 39 40 41 42 43 44 45 46 47 48 49 50
000
ASUS43 KDMX 250103
RWRIA

WEATHER ROUNDUP FOR IOWA
NATIONAL WEATHER SERVICE DES MOINES IA
800 PM CDT SUN JUL 24 2016

NOTE: "FAIR" INDICATES FEW OR NO CLOUDS BELOW 12,000 FEET WITH NO
SIGNIFICANT WEATHER AND/OR OBSTRUCTIONS TO VISIBILITY.

* - THESE STATIONS ARE NOT NWS STATIONS...THUS NOT UNDER NWS
QUALITY CONTROL.  THEY ALSO DO NOT REPORT WEATHER SUCH
AS PRECIPITATION OR FOG.

IAZ001>003-012>014-020>022-031>034-043>046-250200-
   NORTHWEST IOWA

CITY           SKY/WX    TMP DP  RH WIND       PRES   REMARKS
CARROLL *      CLOUDY    77  70  78 N6        30.02R
CHEROKEE *     CLOUDY    74  66  76 N3        30.03S
LE MARS *      MOCLDY    77  66  69 NW7       30.04R
SHELDON *      MOCLDY    73  66  78 NW5       30.03R
SIOUX CITY     CLOUDY    80  61  52 N9        30.02S HX  81
SPENCER        CLOUDY    75  65  70 W6        30.03S
STORM LAKE *   CLOUDY    73  66  78 N5        30.04S
$$

IAZ055>058-069>071-079>083-090>094-250200-
   SOUTHWEST IOWA

CITY           SKY/WX    TMP DP  RH WIND       PRES   REMARKS
ATLANTIC *     CLOUDY    79  72  78 N5        30.00F HX  82
CLARINDA *       N/A     75  72  88 MISG      30.01S
COUNCIL BLFS * CLOUDY    81  68  65 CALM      30.01F HX  83
CRESTON *      CLOUDY    77  68  73 N12       30.00F
HARLAN  *      CLOUDY    79  70  73 CALM      30.05S HX  81
LAMONI         CLOUDY    76  69  79 N7        29.99F
RED OAK *      MOCLDY    79  73  83 CALM      30.00R HX  82
SHENANDOAH *   CLOUDY    75  73  94 NE16      29.97F
$$

IAZ047>049-059>061-072>074-084-250200-
   CENTRAL IOWA

CITY           SKY/WX    TMP DP  RH WIND       PRES   REMARKS
AMES           CLOUDY    78  69  73 NW8       29.99S HX  80
ANKENY *         N/A    N/A N/A N/A MISG        N/A
BOONE *        CLOUDY    77  66  69 NW7       30.00S
CHARITON *       N/A    N/A N/A N/A MISG        N/A
DES MOINES     CLOUDY    81  67  62 NW6       29.98S HX  83
GRINNELL*      CLOUDY    75  70  82 CALM      29.98S
KNOXVILLE *    PTCLDY    79  68  69 N5        29.96F HX  81
MARSHALLTOWN   CLOUDY    78  70  76 W6        29.97R HX  80
NEWTON *       CLOUDY    77  68  73 N6        29.97S
PELLA *        CLOUDY    76  69  80 NW3       29.98S
PERRY *          N/A     79  72  80 NW3       30.01R HX  82
$$

IAZ004>006-015-016-023>025-035-036-250200-
   NORTH CENTRAL IOWA

CITY           SKY/WX    TMP DP  RH WIND       PRES   REMARKS
ALGONA *       CLOUDY    75  68  78 NW5       30.01S
ESTHERVILLE    CLOUDY    74  67  78 W7        30.01S
FORT DODGE *   CLOUDY    75  66  73 CALM      30.02S
MASON CITY     CLOUDY    74  65  73 NW9       30.00R
FOREST CITY *    N/A     72  63  73 NW7       30.00R
IOWA FALLS *     N/A     76  66  70 W7        30.02R
$$

IAZ007>011-017>019-026>030-037>042-050>054-066-250200-
   NORTHEAST IOWA

CITY           SKY/WX    TMP DP  RH WIND       PRES   REMARKS
CEDAR RAPIDS   PTCLDY    78  69  73 N7        29.93S HX  80
CHARLES CITY * CLOUDY    73  70  88 W5        29.98R
CLINTON *      CLEAR     80  72  76 NW9       29.92R HX  84
DECORAH *      PTCLDY    75  66  73 NW5       29.93R
DUBUQUE        CLOUDY    76  67  73 NW7       29.94R
MONTICELLO *   PTCLDY    77  68  73 NW5       29.93S
OELWEIN *      CLOUDY    75  70  83 NW7       29.95S
WATERLOO       CLOUDY    76  68  76 W3        29.93F
$$

IAZ064-065-067-068-078-250200-
   EAST CENTRAL IOWA

CITY           SKY/WX    TMP DP  RH WIND       PRES   REMARKS
DAVENPORT      PTCLDY    81  68  64 NW7       29.93R HX  84
IOWA CITY      PTCLDY    82  68  62 NW12      29.94S HX  85
MUSCATINE *    PTCLDY    82  72  69 NW8       29.92S HX  87
QUAD CITIES    MOCLDY    86  68  54 NW17G26   29.91R HX  89
$$

IAZ062-063-075>077-085>089-095>099-250200-
   SOUTHEAST IOWA

CITY           SKY/WX    TMP DP  RH WIND       PRES   REMARKS
BURLINGTON     RAIN      83  81  94 NW6       29.90S FOG     HX  97
FAIRFIELD *    CLOUDY    79  72  78 NW9       29.94F HX  82
KEOKUK *       CLOUDY    81  70  69 W20G29    29.93R HX  84
CENTERVILLE *    N/A     77  72  83 CALM      29.99R
OTTUMWA        CLOUDY    79  70  74 NW10      29.95F HX  82
WASHINGTON *   CLOUDY    81  72  74 NW13      29.95S HX  84
$$

ABBREVIATIONS USED IN REMARKS
   TC - TEMPERATURES IN CELSIUS
  WCI - WIND CHILL INDEX
   HX - HEAT INDEX
  VSB - VISIBILITY
$$





USA.gov is the U.S. government's official web portal to all federal, state and local government web resources and services.